AV194 Weather Reports


Display with metric or nautical units.
time (UTC)temp
F
wind
direction
speed
MPH
gust
MPH
rain 1hr
in
rain 24hr
in
rain mn
in
humidity
%
barometer
mb
20260510065054 48 279 0.0 0.0 0.00 0.51 0.00 97 1010.6
20260510064601 48 279 0.0 1.0 0.00 0.51 0.00 97 1010.7
20260510064054 48 279 0.0 2.0 0.00 0.51 0.00 97 1010.7
20260510063554 48 279 1.0 2.0 0.00 0.51 0.00 97 1010.7
20260510063058 48 5 0.0 1.0 0.00 0.51 0.00 97 1010.5
20260510062553 48 5 0.0 1.0 0.00 0.51 0.00 97 1010.6
20260510062053 48 5 0.0 0.0 0.00 0.51 0.00 97 1010.7
20260510061555 48 5 0.0 1.0 0.00 0.51 0.00 97 1010.8
20260510061052 48 5 0.0 1.0 0.00 0.51 0.00 97 1010.8
20260510060552 48 18 0.0 1.0 0.00 0.51 0.00 97 1010.8
20260510060052 48 34 0.0 0.0 0.00 0.51 0.00 97 1010.7
20260510055550 48 34 0.0 0.0 0.00 0.51 0.00 97 1010.7
20260510055050 48 33 0.0 0.0 0.00 0.51 0.00 97 1010.8
20260510054550 48 33 0.0 0.0 0.00 0.51 0.00 97 1010.9
20260510054048 48 33 0.0 1.0 0.00 0.51 0.00 97 1010.9
20260510053548 48 33 0.0 1.0 0.00 0.51 0.00 97 1011.1
20260510053048 48 33 0.0 1.0 0.00 0.51 0.00 97 1011.1
20260510052548 48 32 0.0 1.0 0.00 0.51 0.00 96 1011.2
20260510052048 48 32 0.0 1.0 0.00 0.51 0.00 96 1011.3
20260510051550 48 32 0.0 1.0 0.00 0.51 0.00 97 1011.4
20260510051046 48 40 0.0 0.0 0.00 0.51 0.00 96 1011.2
20260510050546 48 40 0.0 1.0 0.00 0.51 0.00 97 1011.2
20260510050046 48 40 0.0 2.0 0.00 0.51 0.00 96 1011.2
20260510045546 48 88 0.0 2.0 0.00 0.51 0.00 97 1011.1
20260510045049 48 95 0.0 0.0 0.00 0.51 0.00 96 1011.1
20260510044550 48 95 0.0 0.0 0.00 0.51 0.00 96 1011.3
20260510044048 48 95 0.0 0.0 0.00 0.51 0.00 96 1011.4
20260510043545 48 95 0.0 0.0 0.00 0.51 0.00 96 1011.4
20260510043053 48 95 0.0 0.0 0.00 0.51 0.00 96 1011.4
20260510042544 48 95 0.0 0.0 0.00 0.51 0.00 96 1011.3
20260510042043 48 95 0.0 0.0 0.00 0.51 0.00 96 1011.3
20260510041548 48 94 0.0 0.0 0.00 0.51 0.00 96 1011.3
20260510041041 47 96 0.0 1.0 0.00 0.51 0.00 96 1011.2
20260510040541 48 96 0.0 1.0 0.00 0.51 0.00 96 1011.1
20260510040041 48 84 0.0 1.0 0.00 0.51 0.51 96 1011.2
20260510035539 48 84 0.0 1.0 0.00 0.51 0.51 96 1011.1
20260510035040 47 78 0.0 1.0 0.00 0.51 0.51 96 1011.4
20260510034538 47 78 0.0 0.0 0.00 0.51 0.51 96 1011.7
20260510034038 47 78 0.0 1.0 0.00 0.51 0.51 96 1011.7
20260510033537 47 78 0.0 1.0 0.00 0.51 0.51 96 1011.6
20260510033039 47 78 0.0 1.0 0.00 0.51 0.51 96 1011.7
20260510032541 47 78 0.0 1.0 0.00 0.51 0.51 96 1011.5
20260510032037 47 78 0.0 1.0 0.00 0.51 0.51 96 1011.7
20260510031542 47 78 0.0 1.0 0.00 0.51 0.51 96 1011.7
20260510031036 47 81 0.0 2.0 0.00 0.51 0.51 96 1011.7
20260510030535 47 32 0.0 1.0 0.00 0.51 0.51 96 1011.7
20260510030036 47 31 0.0 1.0 0.00 0.51 0.51 96 1011.8
20260510025536 47 27 0.0 0.0 0.00 0.51 0.51 96 1011.9
20260510025035 47 27 0.0 0.0 0.00 0.51 0.51 96 1011.9
20260510024536 47 26 0.0 0.0 0.00 0.51 0.51 96 1012.0
20260510024035 47 26 0.0 0.0 0.00 0.51 0.51 96 1012.0
20260510023539 47 26 0.0 0.0 0.00 0.51 0.51 96 1011.9
20260510023035 47 26 0.0 0.0 0.00 0.51 0.51 96 1011.9
20260510022535 47 26 0.0 0.0 0.00 0.51 0.51 96 1012.0
20260510022035 47 26 0.0 1.0 0.00 0.51 0.51 96 1012.0
20260510021538 47 27 0.0 2.0 0.00 0.51 0.51 96 1012.1
20260510021033 47 50 0.0 2.0 0.00 0.51 0.51 96 1012.2
20260510020534 47 42 0.0 0.0 0.00 0.51 0.51 96 1012.3
20260510020034 47 42 0.0 0.0 0.00 0.51 0.51 96 1012.2
20260510015533 47 42 0.0 0.0 0.00 0.51 0.51 96 1012.2
20260510015036 47 42 0.0 0.0 0.00 0.51 0.51 96 1012.3
20260510014535 47 42 0.0 1.0 0.00 0.51 0.51 96 1012.2
20260510014035 47 42 0.0 2.0 0.01 0.51 0.51 96 1012.2
20260510013533 47 42 0.0 2.0 0.01 0.51 0.51 96 1012.2
20260510013033 47 73 0.0 1.0 0.01 0.51 0.51 96 1012.1
20260510012532 47 73 0.0 2.0 0.01 0.51 0.51 96 1012.1
20260510012031 47 73 0.0 2.0 0.01 0.51 0.51 96 1012.1
20260510011532 47 97 0.0 2.0 0.01 0.51 0.51 96 1012.1
20260510011030 47 94 0.0 2.0 0.01 0.51 0.51 96 1012.0
20260510010531 47 94 0.0 2.0 0.01 0.51 0.51 96 1012.1
20260510010031 47 22 0.0 1.0 0.01 0.51 0.51 96 1012.2
20260510005531 47 22 0.0 4.0 0.01 0.51 0.51 96 1012.1
20260510005030 47 22 0.0 4.0 0.01 0.51 0.51 96 1012.1
20260510004530 47 33 0.0 3.0 0.01 0.51 0.51 96 1012.2
20260510004030 47 35 0.0 2.0 0.00 0.50 0.50 96 1012.1
20260510003530 47 74 0.0 0.0 0.00 0.50 0.50 96 1012.1
20260510003031 47 74 0.0 1.0 0.00 0.50 0.50 96 1012.1
20260510002529 47 74 0.0 1.0 0.00 0.50 0.50 96 1012.2
20260510002030 47 74 0.0 1.0 0.00 0.50 0.50 96 1012.2
20260510001530 47 74 0.0 1.0 0.00 0.50 0.50 96 1012.2
20260510001029 47 74 0.0 2.0 0.00 0.50 0.50 96 1012.1
20260510000529 47 74 0.0 2.0 0.00 0.50 0.50 96 1012.1
20260510000028 47 102 0.0 1.0 0.00 0.50 0.50 96 1012.1
20260509235528 47 103 0.0 1.0 0.01 0.50 0.50 96 1012.1
20260509235028 47 103 0.0 1.0 0.01 0.50 0.50 96 1012.0
20260509234534 47 101 0.0 0.0 0.01 0.50 0.50 96 1011.9
20260509234029 47 101 0.0 0.0 0.01 0.50 0.50 96 1011.8
20260509233529 47 101 0.0 1.0 0.02 0.50 0.50 96 1011.9
20260509233028 47 101 0.0 2.0 0.02 0.50 0.50 96 1011.8
20260509232528 47 355 0.0 2.0 0.02 0.50 0.50 96 1011.8
20260509232028 47 216 0.0 1.0 0.03 0.50 0.50 96 1011.6
20260509231528 47 216 0.0 1.0 0.03 0.50 0.50 96 1011.5
20260509231027 47 211 0.0 2.0 0.04 0.50 0.50 96 1011.6
20260509230527 47 122 0.0 4.0 0.04 0.50 0.50 96 1011.5
20260509230027 47 271 1.0 4.0 0.04 0.50 0.50 95 1011.5
20260509225527 47 95 0.0 4.0 0.04 0.49 0.49 95 1011.4
20260509225030 47 113 0.0 4.0 0.04 0.49 0.49 95 1011.4
20260509224528 47 84 1.0 4.0 0.04 0.49 0.49 95 1011.4
20260509224026 47 103 1.0 4.0 0.05 0.49 0.49 95 1011.4
20260509223525 47 130 0.0 2.0 0.05 0.48 0.48 95 1011.5
20260509223029 47 95 0.0 2.0 0.05 0.48 0.48 95 1011.5
20260509222526 47 113 1.0 4.0 0.06 0.48 0.48 95 1011.5
20260509222023 47 108 0.0 4.0 0.05 0.47 0.47 95 1011.7
20260509221524 47 90 0.0 2.0 0.06 0.47 0.47 95 1011.8
20260509221023 47 64 1.0 5.0 0.06 0.46 0.46 95 1011.8
20260509220523 48 102 1.0 5.0 0.06 0.46 0.46 95 1011.7
20260509220021 48 84 1.0 4.0 0.07 0.46 0.46 95 1011.9
20260509215521 48 126 0.0 5.0 0.07 0.45 0.45 95 1012.1
20260509215020 48 69 0.0 5.0 0.08 0.45 0.45 95 1012.1
20260509214520 48 74 0.0 4.0 0.08 0.44 0.44 95 1012.2
20260509214020 48 60 0.0 4.0 0.09 0.44 0.44 95 1012.3
20260509213521 48 69 0.0 4.0 0.10 0.43 0.43 95 1012.3
20260509213020 48 58 0.0 2.0 0.11 0.43 0.43 95 1012.4
20260509212519 48 51 0.0 2.0 0.11 0.42 0.42 95 1012.5
20260509212019 48 47 0.0 2.0 0.11 0.42 0.42 95 1012.5
20260509211519 48 94 0.0 2.0 0.10 0.41 0.41 95 1012.5
20260509211019 48 100 1.0 2.0 0.09 0.40 0.40 95 1012.4
20260509210518 48 45 0.0 2.0 0.09 0.40 0.40 95 1012.6
20260509210028 48 33 0.0 2.0 0.08 0.39 0.39 95 1012.7
20260509205518 48 39 0.0 1.0 0.07 0.38 0.38 95 1012.5
20260509205018 48 39 0.0 2.0 0.06 0.37 0.37 95 1012.5
20260509204518 48 103 0.0 2.0 0.05 0.36 0.36 95 1012.5
20260509204018 48 319 0.0 2.0 0.04 0.35 0.35 95 1012.6
20260509203518 48 97 0.0 4.0 0.02 0.33 0.33 95 1012.5
20260509203018 48 20 0.0 4.0 0.01 0.32 0.32 95 1012.5
20260509202517 48 57 1.0 4.0 0.00 0.31 0.31 95 1012.2
20260509202021 48 101 0.0 4.0 0.00 0.31 0.31 95 1012.4
20260509201516 48 90 0.0 2.0 0.00 0.31 0.31 95 1012.4
20260509201015 48 82 0.0 2.0 0.00 0.31 0.31 95 1012.4
20260509200517 48 76 0.0 4.0 0.00 0.31 0.31 95 1012.3
20260509200015 48 41 0.0 4.0 0.00 0.31 0.31 95 1012.2
20260509195520 48 77 0.0 4.0 0.00 0.31 0.31 95 1012.2
20260509195015 48 78 0.0 4.0 0.00 0.31 0.31 94 1012.3
20260509194515 48 11 1.0 4.0 0.00 0.31 0.31 95 1012.2
20260509194014 48 355 1.0 5.0 0.00 0.31 0.31 95 1012.0
20260509193513 48 72 0.0 5.0 0.00 0.31 0.31 95 1012.0
20260509193014 47 108 1.0 5.0 0.01 0.31 0.31 94 1012.2
20260509192511 47 99 0.0 5.0 0.01 0.31 0.31 94 1012.3
20260509192011 48 37 2.0 5.0 0.01 0.31 0.31 95 1012.5
20260509191511 48 80 1.0 6.0 0.02 0.31 0.31 95 1012.4
20260509191011 47 46 0.0 6.0 0.03 0.31 0.31 95 1012.4
20260509190509 47 31 3.0 6.0 0.04 0.31 0.31 95 1012.4
20260509190011 47 30 1.0 5.0 0.05 0.31 0.31 95 1012.6
20260509185509 47 125 1.0 7.0 0.06 0.31 0.31 95 1012.5
20260509185009 47 185 2.0 7.0 0.06 0.31 0.31 94 1012.6
20260509184516 47 42 2.0 5.0 0.06 0.31 0.31 95 1012.6
20260509184007 48 109 1.0 4.0 0.07 0.31 0.31 95 1012.7
20260509183507 47 114 1.0 4.0 0.08 0.31 0.31 95 1012.8
20260509183105 47 13 1.0 5.0 0.07 0.30 0.30 94 1012.9
20260509182505 47 84 0.0 5.0 0.08 0.30 0.30 94 1013.1
20260509182005 47 68 1.0 2.0 0.09 0.30 0.30 94 1013.1
20260509181505 47 111 0.0 2.0 0.09 0.28 0.28 94 1013.2
20260509181005 47 92 1.0 2.0 0.09 0.28 0.28 94 1013.2
20260509180505 47 79 0.0 2.0 0.09 0.27 0.27 94 1013.3
20260509180004 47 83 0.0 2.0 0.09 0.26 0.26 94 1013.2
20260509175503 47 82 0.0 5.0 0.09 0.25 0.25 94 1013.3
20260509175003 46 107 2.0 5.0 0.10 0.25 0.25 94 1013.2
20260509174503 47 63 1.0 4.0 0.10 0.24 0.24 94 1013.3
20260509174002 47 61 0.0 4.0 0.10 0.24 0.24 94 1013.4
20260509173600 47 44 1.0 5.0 0.11 0.24 0.24 94 1013.4
20260509173058 47 38 2.0 5.0 0.11 0.23 0.23 94 1013.4
20260509172558 46 99 0.0 4.0 0.10 0.22 0.22 94 1013.8
20260509172059 46 98 0.0 4.0 0.09 0.21 0.21 94 1013.9
20260509171558 47 76 0.0 2.0 0.09 0.20 0.20 94 1013.7
20260509171057 46 92 0.0 2.0 0.08 0.19 0.19 93 1013.8
20260509170557 47 29 0.0 1.0 0.08 0.18 0.18 94 1013.8
20260509170106 46 23 0.0 1.0 0.08 0.17 0.17 94 1013.9
20260509165556 46 9 0.0 0.0 0.07 0.16 0.16 94 1013.8
20260509165056 46 9 0.0 0.0 0.06 0.15 0.15 93 1013.9
20260509164559 46 9 0.0 0.0 0.06 0.14 0.14 94 1013.8
20260509164059 46 9 0.0 1.0 0.06 0.14 0.14 93 1013.9
20260509163556 46 9 0.0 4.0 0.06 0.13 0.13 93 1013.7
20260509163055 46 123 0.0 4.0 0.05 0.12 0.12 94 1013.6
20260509162555 46 17 0.0 2.0 0.05 0.12 0.12 93 1013.6
20260509162055 46 21 0.0 4.0 0.04 0.11 0.11 93 1013.5
20260509161600 46 96 1.0 4.0 0.05 0.11 0.11 93 1013.5
20260509161054 46 50 0.0 4.0 0.05 0.11 0.11 93 1013.6
20260509160553 46 78 1.0 4.0 0.04 0.10 0.10 93 1013.8
20260509160053 46 91 1.0 3.0 0.03 0.09 0.09 93 1014.0
20260509155552 46 84 0.0 2.0 0.04 0.09 0.09 93 1014.0
20260509155052 46 167 0.0 1.0 0.04 0.09 0.09 93 1014.1
20260509154555 46 169 0.0 1.0 0.03 0.08 0.08 93 1014.2
20260509154052 46 169 0.0 1.0 0.03 0.08 0.08 92 1014.4
20260509153552 46 168 0.0 1.0 0.03 0.07 0.07 93 1014.3
20260509153056 46 168 0.0 1.0 0.03 0.07 0.07 92 1014.4
20260509152551 46 137 0.0 1.0 0.03 0.07 0.07 93 1014.4
20260509152050 46 117 0.0 1.0 0.03 0.07 0.07 93 1014.4
20260509151550 46 206 0.0 0.0 0.03 0.06 0.06 92 1014.5
20260509151048 45 206 0.0 0.0 0.03 0.06 0.06 92 1014.5
20260509150547 45 206 0.0 1.0 0.03 0.06 0.06 92 1014.5
20260509150051 45 206 0.0 1.0 0.03 0.06 0.06 92 1014.5
20260509145550 45 205 0.0 0.0 0.03 0.05 0.05 91 1014.5
20260509145048 45 205 0.0 1.0 0.03 0.05 0.05 91 1014.5
20260509144547 45 205 0.0 2.0 0.04 0.05 0.05 92 1014.5
20260509144047 45 248 0.0 2.0 0.04 0.05 0.05 91 1014.5
20260509143547 45 245 0.0 1.0 0.03 0.04 0.04 92 1014.6
20260509143047 44 254 0.0 4.0 0.03 0.04 0.04 91 1014.6
20260509142546 45 265 1.0 3.0 0.03 0.04 0.04 92 1014.6
20260509142048 45 202 0.0 0.0 0.03 0.04 0.04 91 1014.6
20260509141546 45 202 0.0 0.0 0.02 0.03 0.03 91 1014.5
20260509141048 45 202 0.0 0.0 0.02 0.03 0.03 91 1014.5
20260509140544 44 202 0.0 0.0 0.03 0.03 0.03 90 1014.4
20260509140053 45 202 0.0 1.0 0.03 0.03 0.03 91 1014.4
20260509135544 44 202 0.0 1.0 0.02 0.02 0.02 90 1014.4
20260509135043 44 186 0.0 1.0 0.02 0.02 0.02 90 1014.4
20260509134605 44 187 0.0 2.0 0.01 0.01 0.01 90 1014.3
20260509134042 44 187 0.0 2.0 0.01 0.01 0.01 90 1014.3
20260509133540 44 144 0.0 1.0 0.01 0.01 0.01 90 1014.2
20260509133039 45 144 0.0 1.0 0.01 0.01 0.01 90 1014.2
20260509132538 44 125 0.0 1.0 0.01 0.01 0.01 90 1014.1
20260509132041 44 121 0.0 2.0 0.01 0.01 0.01 89 1014.0
20260509131547 44 94 0.0 2.0 0.01 0.01 0.01 90 1014.0
20260509131035 44 96 0.0 1.0 0.01 0.01 0.01 89 1014.1
20260509130534 44 152 0.0 1.0 0.00 0.00 0.00 89 1014.1
20260509130038 44 152 0.0 1.0 0.00 0.00 0.00 88 1014.2
20260509125532 43 152 0.0 1.0 0.00 0.00 0.00 87 1014.3
20260509125036 43 152 0.0 1.0 0.00 0.00 0.00 87 1014.3
20260509124532 43 152 0.0 1.0 0.00 0.00 0.00 87 1014.4
20260509124032 44 152 0.0 1.0 0.00 0.00 0.00 87 1014.5
20260509123531 43 150 0.0 1.0 0.00 0.00 0.00 86 1014.4
20260509123031 43 227 0.0 1.0 0.00 0.00 0.00 85 1014.5
20260509122530 43 202 0.0 2.0 0.00 0.00 0.00 85 1014.5
20260509122031 43 219 0.0 4.0 0.00 0.00 0.00 84 1014.6
20260509121530 43 205 2.0 3.0 0.00 0.00 0.00 84 1014.6
20260509121028 42 305 1.0 4.0 0.00 0.00 0.00 82 1014.6
20260509120528 42 214 0.0 1.0 0.00 0.00 0.00 84 1014.4
20260509120027 42 187 0.0 1.0 0.00 0.00 0.00 84 1014.4
20260509115526 42 187 0.0 2.0 0.00 0.00 0.00 85 1014.3
20260509115029 42 187 0.0 2.0 0.00 0.00 0.00 86 1014.4
20260509114528 41 117 0.0 2.0 0.00 0.00 0.00 86 1014.3
20260509114027 41 86 0.0 2.0 0.00 0.00 0.00 87 1014.3
20260509113526 41 111 0.0 2.0 0.00 0.00 0.00 87 1014.3
20260509113023 41 123 0.0 2.0 0.00 0.00 0.00 88 1014.3
20260509112522 41 94 0.0 2.0 0.00 0.00 0.00 89 1014.4
20260509112023 40 94 1.0 2.0 0.00 0.00 0.00 90 1014.5
20260509111523 40 79 0.0 1.0 0.00 0.00 0.00 90 1014.5
20260509111025 40 78 0.0 2.0 0.00 0.00 0.00 91 1014.5
20260509110521 39 63 0.0 2.0 0.00 0.00 0.00 91 1014.6
20260509110019 39 67 0.0 1.0 0.00 0.00 0.00 91 1014.6
20260509105518 38 67 0.0 1.0 0.00 0.00 0.00 92 1014.6
20260509105020 38 69 0.0 1.0 0.00 0.00 0.00 92 1014.7
20260509104518 38 67 0.0 2.0 0.00 0.00 0.00 92 1014.7
20260509104018 38 82 0.0 2.0 0.00 0.00 0.00 92 1014.5
20260509103515 38 143 0.0 1.0 0.00 0.00 0.00 92 1014.5
20260509103015 37 173 0.0 1.0 0.00 0.00 0.00 92 1014.5
20260509102514 37 173 0.0 1.0 0.00 0.00 0.00 92 1014.5
20260509102015 37 173 0.0 1.0 0.00 0.00 0.00 92 1014.5
20260509101519 37 174 0.0 1.0 0.00 0.00 0.00 92 1014.5
20260509101013 37 175 0.0 1.0 0.00 0.00 0.00 92 1014.5
20260509100510 36 180 0.0 1.0 0.00 0.00 0.00 92 1014.3
20260509100019 36 220 0.0 0.0 0.00 0.00 0.00 92 1014.2
20260509095509 36 220 0.0 0.0 0.00 0.00 0.00 92 1014.2
20260509095007 36 220 0.0 0.0 0.00 0.00 0.00 92 1014.1
20260509094512 35 220 0.0 0.0 0.00 0.00 0.00 92 1014.0
20260509094007 35 221 0.0 0.0 0.00 0.00 0.00 92 1014.0
20260509093505 35 221 0.0 0.0 0.00 0.00 0.00 92 1013.9
20260509093004 35 221 0.0 0.0 0.00 0.00 0.00 91 1013.7
20260509092504 35 221 0.0 0.0 0.00 0.00 0.00 91 1013.8
20260509092004 35 221 0.0 1.0 0.00 0.00 0.00 91 1013.7
20260509091504 35 221 0.0 1.0 0.00 0.00 0.00 91 1013.7
20260509091003 35 221 0.0 1.0 0.00 0.00 0.00 91 1013.8
20260509090502 35 222 0.0 2.0 0.00 0.00 0.00 91 1013.9
20260509090002 35 221 0.0 2.0 0.00 0.00 0.00 91 1013.8
20260509085600 35 221 0.0 2.0 0.00 0.00 0.00 91 1013.8
20260509085102 35 221 0.0 1.0 0.00 0.00 0.00 91 1013.6
20260509084601 35 221 0.0 1.0 0.00 0.00 0.00 91 1013.5
20260509084058 35 221 0.0 1.0 0.00 0.00 0.00 91 1013.4
20260509083555 35 221 0.0 1.0 0.00 0.00 0.00 91 1013.4
20260509083056 35 221 0.0 1.0 0.00 0.00 0.00 91 1013.4
20260509082554 35 221 0.0 1.0 0.00 0.00 0.00 91 1013.4
20260509082054 35 221 0.0 0.0 0.00 0.00 0.00 91 1013.3
20260509081554 35 221 0.0 0.0 0.00 0.00 0.00 91 1013.4
20260509081054 35 221 0.0 0.0 0.00 0.00 0.00 90 1013.4
20260509080552 35 221 0.0 0.0 0.00 0.00 0.00 90 1013.3
20260509080052 35 221 0.0 0.0 0.00 0.00 0.00 90 1013.4
20260509075551 36 221 0.0 1.0 0.00 0.00 0.00 90 1013.4
20260509075051 36 221 0.0 1.0 0.00 0.00 0.00 90 1013.4
20260509074559 36 221 0.0 1.0 0.00 0.00 0.00 90 1013.4
20260509074049 36 221 0.0 1.0 0.00 0.00 0.00 90 1013.4
20260509073549 36 220 0.0 1.0 0.00 0.00 0.00 90 1013.4
20260509073047 36 109 0.0 1.0 0.00 0.00 0.00 90 1013.3
20260509072547 36 108 0.0 1.0 0.00 0.00 0.00 90 1013.2
20260509072047 36 107 0.0 1.0 0.00 0.00 0.00 89 1013.2
20260509071546 36 107 0.0 1.0 0.00 0.00 0.00 89 1013.1
20260509071045 36 107 0.0 2.0 0.00 0.00 0.00 89 1013.1
20260509070544 37 108 0.0 0.0 0.00 0.00 0.00 89 1013.1
20260509070045 37 108 0.0 1.0 0.00 0.00 0.00 89 1013.2
20260509065541 37 108 0.0 2.0 0.00 0.00 0.00 88 1013.2